Find Starlink 36571

NORAD ID: 67579 Int'l Des: 2026-016 Owner: SPXS Country: US Constellation: starlink operational
LEOCIRCULARRETROGRADE

Current View

Loading 3D Globe...

About Starlink 36571

Description loading...

Upcoming Passes

Passes for default location (London). Set your location on the main map for personalized predictions.

Altitude History

Loading altitude history...

Two-Line Element Set

1 67579U 26016U 26146.59279726 .00025600 00000-0 79239-3 0 9991
2 67579 97.2868 206.9137 0000478 12.5934 347.5321 15.33453952 18809
Epoch: May 26, 2026 • Age: 6 hours

Current Status

Altitude 473.8 km
Velocity 7.63 km/s
Sub-Earth Point 52.36°N, 2.44°E
Launch Date Jan 25, 2026
Age 0.3 years
Type internet

Technical Details

Classification Payload
Mass 575.00 kg
Dry Mass 530.00 kg
Total Mass 575.00 kg
Length 0.30 m
Diameter 4.10 m
Span 29.00 m
Shape Box + pan
Manufacturer SPXS
Bus Type Starlink V2MO
Phase Status In Orbit
Owner/State SPXS/US

Most Searched